Bishop, CA

7:47 AM PDT on April 28, 2017 (GMT -0700)
Bishop

Weather History for KBIH - July, 2013

Change the Weather History Date:

Friday, July 19, 2013

  Actual Average Record
Temperature  
Mean Temperature 81 °F 78 °F  
Max Temperature 106 °F 99 °F 108 °F (2005)
Min Temperature 56 °F 57 °F 47 °F (2000)
Degree Days  
Heating Degree Days 0 0  
Month to date heating degree days 0 0  
Since 1 June heating degree days 0 19  
Since 1 July heating degree days 0 0  
Cooling Degree Days 16 13  
Month to date cooling degree days 287 230  
Year to date cooling degree days 703 512  
Since 1 June cooling degree days 617 444  
Growing Degree Days 30 (Base 50)    
Moisture  
Dew Point 27 °F    
Average Humidity 15    
Maximum Humidity 25    
Minimum Humidity 5    
Precipitation  
Precipitation 0.00 in 0.01 in 0.37 in (1984)
Month to date precipitation T 0.10  
Year to date precipitation 0.47 3.17  
Snow  
Snow 0.00 in 0.00 in - ()
Month to date snowfall 0.0 0.0  
Since 1 June snowfall 0.0 0.0  
Since 1 July snowfall 0.0 0.0  
Snow Depth 0.00 in    
Sea Level Pressure  
Sea Level Pressure 29.80 in    
Wind  
Wind Speed 7 mph (SSW)    
Max Wind Speed 18 mph    
Max Gust Speed 28 mph    
Visibility 10 miles    
Events      
T = Trace of Precipitation, MM = Missing Value Source: NWS Daily Summary

Daily Weather History Graph

Daily Weather History Graph

Search for Another Location

Airport or City:

Trip Planner

Search our weather history database for the weather conditions in past years. The results will help you decide how hot, cold, wet, or windy it might be!

Date:

Astronomy

Jul. 19, 2013 Rise Set
Actual Time 5:47 AM PDT 8:11 PM PDT
Civil Twilight 5:17 AM PDT 8:41 PM PDT
Nautical Twilight 4:40 AM PDT 9:17 PM PDT
Astronomical Twilight 4:00 AM PDT 9:58 PM PDT
Moon 5:19 PM PDT (7/19) 2:32 AM PDT (7/19)
Length of Visible Light 15h 23m
Length of Day
14h 23m
Waxing Gibbous, 87% of the Moon is Illuminated
Jul 19
Waxing Gibbous
Jul 22
Full
Jul 29
Last Quarter
Aug 6
New
Aug 14
First Quarter

Hourly Weather History & Observations

Time (PDT) Temp. Dew Point Humidity Pressure Visibility Wind Dir Wind Speed Gust Speed Precip Events Conditions
12:56 AM 69.1 °F 25.0 °F 19% 29.86 in 10.0 mi NW 6.9 mph - N/A   Clear
1:56 AM 66.9 °F 28.0 °F 23% 29.86 in 10.0 mi NW 5.8 mph - N/A   Clear
2:56 AM 63.0 °F 27.0 °F 26% 29.87 in 10.0 mi NW 5.8 mph - N/A   Clear
3:56 AM 62.1 °F 26.1 °F 25% 29.88 in 10.0 mi North 8.1 mph - N/A   Clear
4:56 AM 61.0 °F 24.1 °F 24% 29.88 in 10.0 mi North 4.6 mph - N/A   Clear
5:56 AM 61.0 °F 24.1 °F 24% 29.89 in 10.0 mi NW 4.6 mph - N/A   Clear
6:56 AM 63.0 °F 25.0 °F 24% 29.91 in 10.0 mi WNW 4.6 mph - N/A   Clear
7:56 AM 73.9 °F 21.9 °F 14% 29.91 in 10.0 mi Calm Calm - N/A   Clear
8:56 AM 81.0 °F 28.0 °F 14% 29.90 in 10.0 mi North 3.5 mph - N/A   Clear
9:56 AM 88.0 °F 21.0 °F 9% 29.87 in 10.0 mi Variable 3.5 mph - N/A   Clear
10:56 AM 93.9 °F 21.0 °F 7% 29.85 in 10.0 mi NE 3.5 mph - N/A   Clear
11:56 AM 96.1 °F 21.0 °F 7% 29.83 in 10.0 mi Calm Calm - N/A   Clear
12:56 PM 102.0 °F 19.0 °F 5% 29.81 in 10.0 mi SSE 11.5 mph 16.1 mph N/A   Clear
1:56 PM 104.0 °F 24.1 °F 6% 29.78 in 10.0 mi South 10.4 mph 19.6 mph N/A   Clear
2:56 PM 104.0 °F 28.9 °F 7% 29.75 in 10.0 mi SSW 8.1 mph 23.0 mph N/A   Clear
3:56 PM 105.1 °F 30.9 °F 8% 29.73 in 10.0 mi SSW 9.2 mph 18.4 mph N/A   Clear
4:56 PM 104.0 °F 30.0 °F 8% 29.72 in 10.0 mi SSW 8.1 mph - N/A   Clear
5:56 PM 104.0 °F 32.0 °F 8% 29.70 in 10.0 mi South 10.4 mph 19.6 mph N/A   Clear
6:56 PM 102.0 °F 33.1 °F 9% 29.70 in 10.0 mi SSE 12.7 mph - N/A   Clear
7:56 PM 97.0 °F 33.1 °F 11% 29.70 in 10.0 mi SSE 12.7 mph - N/A   Clear
8:56 PM 93.0 °F 32.0 °F 12% 29.72 in 10.0 mi SSE 11.5 mph - N/A   Clear
9:56 PM 93.0 °F 34.0 °F 12% 29.73 in 10.0 mi SSE 13.8 mph 20.7 mph N/A   Clear
10:56 PM 88.0 °F 34.0 °F 15% 29.73 in 10.0 mi SE 8.1 mph - N/A   Clear
11:56 PM 81.0 °F 35.1 °F 19% 29.75 in 10.0 mi Variable 5.8 mph - N/A   Clear